Flag for Austria Weather past 2 weeks in Rust, Burgenland, Austria

Now
35 °F

Chilly.


Feels Like: 35 °F
Forecast: 29 / 37 °F
Wind: 1 mph from East

Location: Eisenstadt

Current Time: Feb 1, 2015 at 4:45:37 PM

Latest Report: Feb 1, 2015 at 4:00 PM


Visibility: N/A

Pressure: 29.32 "Hg

Humidity: 81%

Dew point: 29 °F

Location of RustLocation

Historic Weather in Rust — Graph

°F

Rust temperature yesterday

Maximum temperature yesterday: 40 °F (at 1:00 PM)
Minimum temperature yesterday: 28 °F (at 11:00 PM)
Average temperature yesterday: 34 °F

Past Weeks' High & Low Weather Summary

 TemperatureHumidityPressure
High46 °F (Jan 17, 3:00 PM)99% (Jan 20, 4:00 AM)30.31 "Hg (Jan 20, 4:00 AM)
Low26 °F (Jan 27, 3:00 AM)57% (Jan 31, 1:00 PM)28.82 "Hg (Jan 30, 4:00 PM)
Average37 °F82%29.85 "Hg
* Reported Jan 17 3:00 PM — Feb 1 3:00 PM, Rust, Weather by CustomWeather, © 2014

Note: Actual official high and low records may vary slightly from our data, if they occured in-between our weather recording intervals... More about our weather records

Advertising

Rust weather history for previous 24 hours

 ConditionsComfort  
Time TempWeatherWind HumidityBarometerVisibility
3:00 PM
Feb 1
35 °FChilly.1 mph82%29.32 "HgN/A
2:00 PM34 °FChilly.1 mph83%29.32 "HgN/A
1:00 PM34 °FChilly.2 mph84%29.32 "HgN/A
12:00 PM35 °FChilly.1 mph79%29.32 "HgN/A
11:00 AM32 °FChilly.1 mph87%29.32 "HgN/A
10:00 AM30 °FFog.1 mph91%29.32 "Hg1 mi
9:00 AM27 °FChilly.No wind95%29.32 "HgN/A
8:00 AM27 °FChilly.1 mph95%29.29 "HgN/A
7:00 AM26 °FFog.1 mph97%29.29 "Hg0 mi
6:00 AM26 °FFog.1 mph96%29.26 "Hg1 mi
5:00 AM26 °FChilly.2 mph97%29.23 "HgN/A
4:00 AM27 °FChilly.1 mph94%29.23 "HgN/A
3:00 AM26 °FChilly.1 mph93%29.23 "HgN/A
2:00 AM26 °FChilly.1 mph91%29.23 "HgN/A
1:00 AM27 °FPassing clouds.3 mph91%29.23 "Hg9 mi
12:00 AM27 °FChilly.2 mph90%29.23 "HgN/A
11:00 PM
Jan 31
28 °FChilly.No wind91%29.23 "HgN/A
10:00 PM29 °FClear.2 mph90%29.23 "Hg9 mi
9:00 PM29 °FChilly.3 mph89%29.23 "HgN/A
8:00 PM30 °FChilly.2 mph88%29.23 "HgN/A
7:00 PM31 °FPassing clouds.2 mph86%29.21 "Hg9 mi
6:00 PM32 °FChilly.3 mph83%29.21 "HgN/A
5:00 PM36 °FChilly.2 mph70%29.18 "HgN/A
4:00 PM39 °FPassing clouds.2 mph62%29.15 "Hg12 mi
Weather by CustomWeather, © 2014

See weather overviewHow to use our weather pages